Time,TemperatureF,DewpointF,PressureIn,WindDirection,WindDirectionDegrees,WindSpeedMPH,WindSpeedGustMPH,Humidity,HourlyPrecipIn,Conditions,Clouds,dailyrainin,SoftwareType,DateUTC
2013-08-11 00:13:00,52.0,37.0,-100.00,North,360,2.0,4.0,56,-99.99,,,-99.99,,2013-08-11 07:13:00,
2013-08-11 00:22:00,52.0,37.0,-100.00,North,360,2.0,4.0,56,-99.99,,,-99.99,,2013-08-11 07:22:00,
2013-08-11 00:33:00,51.0,36.0,-100.00,NNE,18,3.0,4.0,57,-99.99,,,-99.99,,2013-08-11 07:33:00,
2013-08-11 00:44:00,50.0,35.0,-100.00,North,354,2.0,3.0,56,-99.99,,,-99.99,,2013-08-11 07:44:00,
2013-08-11 00:53:00,50.0,35.0,-100.00,NNW,345,2.0,4.0,57,-99.99,,,-99.99,,2013-08-11 07:53:00,
2013-08-11 01:12:00,49.0,34.0,-100.00,NNW,342,1.0,2.0,57,-99.99,,,-99.99,,2013-08-11 08:12:00,
2013-08-11 01:34:00,50.0,34.0,-100.00,NNE,14,2.0,4.0,53,-99.99,,,-99.99,,2013-08-11 08:34:00,
2013-08-11 01:44:00,48.0,34.0,-100.00,NW,324,2.0,4.0,57,-99.99,,,-99.99,,2013-08-11 08:44:00,
2013-08-11 02:03:00,47.0,33.0,-100.00,North,353,2.0,3.0,59,-99.99,,,-99.99,,2013-08-11 09:03:00,
2013-08-11 02:22:00,48.0,32.0,-100.00,North,1,2.0,4.0,54,-99.99,,,-99.99,,2013-08-11 09:22:00,
2013-08-11 02:33:00,47.0,31.0,-100.00,NNW,345,2.0,3.0,54,-99.99,,,-99.99,,2013-08-11 09:33:00,
2013-08-11 02:54:00,46.0,31.0,-100.00,NNW,346,2.0,3.0,56,-99.99,,,-99.99,,2013-08-11 09:54:00,
2013-08-11 03:33:00,45.0,29.0,-100.00,North,352,2.0,3.0,54,-99.99,,,-99.99,,2013-08-11 10:33:00,
2013-08-11 03:43:00,46.0,29.0,-100.00,NNE,19,3.0,5.0,51,-99.99,,,-99.99,,2013-08-11 10:43:00,
2013-08-11 03:53:00,45.0,28.0,-100.00,NNW,334,1.0,3.0,51,-99.99,,,-99.99,,2013-08-11 10:53:00,
2013-08-11 04:12:00,42.0,29.0,-100.00,NE,52,1.0,1.0,59,-99.99,,,-99.99,,2013-08-11 11:12:00,
2013-08-11 04:22:00,43.0,30.0,-100.00,NNW,340,2.0,3.0,59,-99.99,,,-99.99,,2013-08-11 11:22:00,
2013-08-11 04:33:00,44.0,28.0,-100.00,NNE,19,2.0,4.0,52,-99.99,,,-99.99,,2013-08-11 11:33:00,
2013-08-11 05:12:00,42.0,26.0,-100.00,North,358,2.0,3.0,53,-99.99,,,-99.99,,2013-08-11 12:12:00,
2013-08-11 05:23:00,42.0,26.0,-100.00,North,358,2.0,3.0,53,-99.99,,,-99.99,,2013-08-11 12:23:00,
2013-08-11 05:33:00,42.0,26.0,-100.00,NW,326,1.0,3.0,53,-99.99,,,-99.99,,2013-08-11 12:33:00,
2013-08-11 05:43:00,44.0,25.0,-100.00,North,2,2.0,4.0,47,-99.99,,,-99.99,,2013-08-11 12:43:00,
2013-08-11 05:52:00,44.0,25.0,-100.00,North,2,2.0,4.0,47,-99.99,,,-99.99,,2013-08-11 12:52:00,
2013-08-11 06:01:00,40.0,26.0,-100.00,SSW,203,1.0,1.0,57,-99.99,,,-99.99,,2013-08-11 13:01:00,
2013-08-11 06:34:00,42.0,25.0,-100.00,NNE,15,1.0,3.0,50,-99.99,,,-99.99,,2013-08-11 13:34:00,
2013-08-11 06:44:00,41.0,24.0,-100.00,NW,325,1.0,3.0,50,-99.99,,,-99.99,,2013-08-11 13:44:00,
2013-08-11 06:54:00,41.0,24.0,-100.00,NW,325,1.0,3.0,50,-99.99,,,-99.99,,2013-08-11 13:54:00,
2013-08-11 07:02:00,43.0,22.0,-100.00,North,355,2.0,4.0,43,-99.99,,,-99.99,,2013-08-11 14:02:00,
2013-08-11 07:12:00,43.0,22.0,-100.00,North,355,2.0,4.0,43,-99.99,,,-99.99,,2013-08-11 14:12:00,
2013-08-11 07:22:00,44.0,22.0,-100.00,North,11,2.0,3.0,42,-99.99,,,-99.99,,2013-08-11 14:22:00,
2013-08-11 07:32:00,47.0,25.0,-100.00,NE,52,1.0,1.0,41,-99.99,,,-99.99,,2013-08-11 14:32:00,
2013-08-11 07:44:00,50.0,23.0,-100.00,NNE,31,2.0,3.0,35,-99.99,,,-99.99,,2013-08-11 14:44:00,
2013-08-11 07:54:00,50.0,23.0,-100.00,NNE,31,2.0,3.0,35,-99.99,,,-99.99,,2013-08-11 14:54:00,
2013-08-11 08:02:00,56.0,22.0,-100.00,NE,54,1.0,2.0,26,-99.99,,,-99.99,,2013-08-11 15:02:00,
2013-08-11 08:12:00,56.0,22.0,-100.00,NE,54,1.0,2.0,26,-99.99,,,-99.99,,2013-08-11 15:12:00,
2013-08-11 08:22:00,58.0,24.0,-100.00,East,100,1.0,1.0,27,-99.99,,,-99.99,,2013-08-11 15:22:00,
2013-08-11 08:33:00,61.0,25.0,-100.00,SW,232,1.0,1.0,25,-99.99,,,-99.99,,2013-08-11 15:33:00,
2013-08-11 08:44:00,65.0,25.0,-100.00,SSE,165,1.0,2.0,22,-99.99,,,-99.99,,2013-08-11 15:44:00,
2013-08-11 09:33:00,76.0,33.0,-100.00,SSE,158,3.0,8.0,21,-99.99,,,-99.99,,2013-08-11 16:33:00,
2013-08-11 09:43:00,76.0,31.0,-100.00,SSW,201,4.0,9.0,19,-99.99,,,-99.99,,2013-08-11 16:43:00,
2013-08-11 09:53:00,76.0,31.0,-100.00,SSW,201,4.0,9.0,19,-99.99,,,-99.99,,2013-08-11 16:53:00,
2013-08-11 10:03:00,78.0,27.0,-100.00,South,174,6.0,9.0,15,-99.99,,,-99.99,,2013-08-11 17:03:00,
2013-08-11 10:43:00,80.0,30.0,-100.00,SSE,167,5.0,10.0,16,-99.99,,,-99.99,,2013-08-11 17:43:00,
2013-08-11 10:53:00,80.0,30.0,-100.00,SSW,203,4.0,10.0,16,-99.99,,,-99.99,,2013-08-11 17:53:00,
2013-08-11 11:03:00,80.0,28.0,-100.00,SSW,206,5.0,9.0,15,-99.99,,,-99.99,,2013-08-11 18:03:00,
2013-08-11 11:14:00,80.0,27.0,-100.00,South,188,4.0,12.0,14,-99.99,,,-99.99,,2013-08-11 18:14:00,
2013-08-11 11:22:00,81.0,26.0,-100.00,SSW,199,5.0,11.0,13,-99.99,,,-99.99,,2013-08-11 18:22:00,
2013-08-11 11:36:00,81.0,24.0,-100.00,SSW,212,5.0,12.0,12,-99.99,,,-99.99,,2013-08-11 18:36:00,
2013-08-11 11:44:00,82.0,26.0,-100.00,SSW,211,6.0,17.0,13,-99.99,,,-99.99,,2013-08-11 18:44:00,
2013-08-11 11:53:00,81.0,24.0,-100.00,SW,233,7.0,14.0,12,-99.99,,,-99.99,,2013-08-11 18:53:00,
2013-08-11 12:03:00,82.0,24.0,-100.00,SSW,209,8.0,14.0,12,-99.99,,,-99.99,,2013-08-11 19:03:00,
2013-08-11 12:12:00,82.0,22.0,-100.00,SW,216,6.0,12.0,11,-99.99,,,-99.99,,2013-08-11 19:12:00,
2013-08-11 12:22:00,82.0,22.0,-100.00,SW,216,6.0,12.0,11,-99.99,,,-99.99,,2013-08-11 19:22:00,
2013-08-11 12:32:00,82.0,22.0,-100.00,SSW,197,7.0,14.0,11,-99.99,,,-99.99,,2013-08-11 19:32:00,
2013-08-11 12:45:00,83.0,27.0,-100.00,SW,218,5.0,10.0,13,-99.99,,,-99.99,,2013-08-11 19:45:00,
2013-08-11 12:55:00,83.0,27.0,-100.00,SW,218,5.0,10.0,13,-99.99,,,-99.99,,2013-08-11 19:55:00,
2013-08-11 13:03:00,83.0,29.0,-100.00,SSW,193,8.0,20.0,14,-99.99,,,-99.99,,2013-08-11 20:03:00,
2013-08-11 13:33:00,83.0,31.0,-100.00,SSW,195,10.0,20.0,15,-99.99,,,-99.99,,2013-08-11 20:33:00,
2013-08-11 13:44:00,83.0,31.0,-100.00,South,190,8.0,17.0,15,-99.99,,,-99.99,,2013-08-11 20:44:00,
2013-08-11 13:53:00,83.0,31.0,-100.00,South,190,8.0,17.0,15,-99.99,,,-99.99,,2013-08-11 20:53:00,
2013-08-11 14:02:00,84.0,31.0,-100.00,SSW,205,8.0,18.0,15,-99.99,,,-99.99,,2013-08-11 21:02:00,
2013-08-11 14:11:00,84.0,31.0,-100.00,SSW,205,8.0,18.0,15,-99.99,,,-99.99,,2013-08-11 21:11:00,
2013-08-11 14:33:00,84.0,33.0,-100.00,SSW,209,9.0,21.0,16,-99.99,,,-99.99,,2013-08-11 21:33:00,
2013-08-11 14:44:00,83.0,35.0,-100.00,South,178,10.0,24.0,18,-99.99,,,-99.99,,2013-08-11 21:44:00,
2013-08-11 14:53:00,83.0,35.0,-100.00,South,178,10.0,24.0,18,-99.99,,,-99.99,,2013-08-11 21:53:00,
2013-08-11 15:02:00,83.0,38.0,-100.00,South,180,12.0,23.0,20,-99.99,,,-99.99,,2013-08-11 22:02:00,
2013-08-11 15:12:00,83.0,40.0,-100.00,South,182,11.0,23.0,22,-99.99,,,-99.99,,2013-08-11 22:12:00,
2013-08-11 15:33:00,83.0,41.0,-100.00,South,181,13.0,22.0,23,-99.99,,,-99.99,,2013-08-11 22:33:00,
2013-08-11 15:44:00,83.0,40.0,-100.00,South,173,12.0,22.0,22,-99.99,,,-99.99,,2013-08-11 22:44:00,
2013-08-11 15:53:00,83.0,40.0,-100.00,South,173,12.0,22.0,22,-99.99,,,-99.99,,2013-08-11 22:53:00,
2013-08-11 16:02:00,83.0,41.0,-100.00,South,171,11.0,23.0,23,-99.99,,,-99.99,,2013-08-11 23:02:00,
2013-08-11 16:23:00,83.0,42.0,-100.00,South,174,12.0,22.0,24,-99.99,,,-99.99,,2013-08-11 23:23:00,
2013-08-11 16:32:00,82.0,42.0,-100.00,South,177,12.0,23.0,24,-99.99,,,-99.99,,2013-08-11 23:32:00,
2013-08-11 16:43:00,83.0,44.0,-100.00,South,171,11.0,21.0,25,-99.99,,,-99.99,,2013-08-11 23:43:00,
2013-08-11 17:02:00,82.0,44.0,-100.00,South,190,10.0,21.0,26,-99.99,,,-99.99,,2013-08-12 00:02:00,
2013-08-11 17:12:00,82.0,44.0,-100.00,South,190,10.0,21.0,26,-99.99,,,-99.99,,2013-08-12 00:12:00,
2013-08-11 17:34:00,82.0,44.0,-100.00,SSW,201,9.0,17.0,26,-99.99,,,-99.99,,2013-08-12 00:34:00,
2013-08-11 17:53:00,81.0,44.0,-100.00,South,175,11.0,18.0,27,-99.99,,,-99.99,,2013-08-12 00:53:00,
2013-08-11 18:02:00,80.0,43.0,-100.00,South,178,10.0,17.0,27,-99.99,,,-99.99,,2013-08-12 01:02:00,
2013-08-11 18:23:00,80.0,43.0,-100.00,South,183,9.0,16.0,27,-99.99,,,-99.99,,2013-08-12 01:23:00,
2013-08-11 18:43:00,79.0,42.0,-100.00,SSW,205,7.0,14.0,27,-99.99,,,-99.99,,2013-08-12 01:43:00,
2013-08-11 18:53:00,78.0,43.0,-100.00,SSW,203,6.0,10.0,29,-99.99,,,-99.99,,2013-08-12 01:53:00,
2013-08-11 19:22:00,76.0,42.0,-100.00,SW,224,4.0,9.0,30,-99.99,,,-99.99,,2013-08-12 02:22:00,
2013-08-11 19:52:00,75.0,45.0,-100.00,SSW,206,6.0,10.0,34,-99.99,,,-99.99,,2013-08-12 02:52:00,
2013-08-11 20:02:00,73.0,48.0,-100.00,SW,235,7.0,13.0,41,-99.99,,,-99.99,,2013-08-12 03:02:00,
2013-08-11 20:34:00,70.0,48.0,-100.00,SSW,204,1.0,3.0,46,-99.99,,,-99.99,,2013-08-12 03:34:00,
2013-08-11 20:43:00,70.0,49.0,-100.00,WSW,251,1.0,3.0,47,-99.99,,,-99.99,,2013-08-12 03:43:00,
2013-08-11 20:53:00,68.0,48.0,-100.00,ESE,121,1.0,2.0,49,-99.99,,,-99.99,,2013-08-12 03:53:00,
2013-08-11 21:02:00,68.0,49.0,-100.00,NNE,24,0.0,1.0,50,-99.99,,,-99.99,,2013-08-12 04:02:00,
2013-08-11 21:12:00,67.0,49.0,-100.00,NNW,338,1.0,2.0,52,-99.99,,,-99.99,,2013-08-12 04:12:00,
2013-08-11 21:22:00,67.0,49.0,-100.00,NNW,338,1.0,2.0,52,-99.99,,,-99.99,,2013-08-12 04:22:00,
2013-08-11 21:33:00,64.0,47.0,-100.00,North,356,2.0,3.0,53,-99.99,,,-99.99,,2013-08-12 04:33:00,
2013-08-11 21:43:00,64.0,47.0,-100.00,NNW,345,2.0,3.0,53,-99.99,,,-99.99,,2013-08-12 04:43:00,
2013-08-11 21:52:00,64.0,47.0,-100.00,NNW,345,2.0,3.0,53,-99.99,,,-99.99,,2013-08-12 04:52:00,
2013-08-11 22:02:00,60.0,45.0,-100.00,South,185,1.0,2.0,58,-99.99,,,-99.99,,2013-08-12 05:02:00,
2013-08-11 22:11:00,58.0,45.0,-100.00,ESE,113,1.0,1.0,61,-99.99,,,-99.99,,2013-08-12 05:11:00,
2013-08-11 22:22:00,58.0,45.0,-100.00,ESE,113,1.0,1.0,61,-99.99,,,-99.99,,2013-08-12 05:22:00,
2013-08-11 22:32:00,60.0,45.0,-100.00,North,351,2.0,3.0,57,-99.99,,,-99.99,,2013-08-12 05:32:00,
2013-08-11 22:43:00,59.0,44.0,-100.00,NNW,328,2.0,3.0,58,-99.99,,,-99.99,,2013-08-12 05:43:00,
2013-08-11 22:52:00,59.0,44.0,-100.00,NNW,328,2.0,3.0,58,-99.99,,,-99.99,,2013-08-12 05:52:00,
2013-08-11 23:01:00,58.0,43.0,-100.00,North,351,2.0,4.0,57,-99.99,,,-99.99,,2013-08-12 06:01:00,
2013-08-11 23:32:00,55.0,42.0,-100.00,North,350,2.0,3.0,61,-99.99,,,-99.99,,2013-08-12 06:32:00,
2013-08-11 23:42:00,57.0,42.0,-100.00,NNW,337,2.0,3.0,58,-99.99,,,-99.99,,2013-08-12 06:42:00,
2013-08-11 23:52:00,56.0,41.0,-100.00,North,10,2.0,4.0,58,-99.99,,,-99.99,,2013-08-12 06:52:00,